Regional Weather Roundup
Issued by NWS Upton, NY

Current Version | Previous Version | Graphics & Text | Print | Product List | Glossary Off
Versions: 1 2 3 4 5 6 7 8 9 10 11 12 13 14 15 16 17 18 19 20 21 22 23 24 25 26 27 28 29 30 31 32 33 34 35 36 37 38 39 40 41 42 43 44 45 46 47 48 49 50

990
ASUS41 KOKX 221908
RWROKX

REGIONAL WEATHER ROUNDUP
NATIONAL WEATHER SERVICE NEW YORK NY
300 PM EDT SUN OCT 22 2017

NOTE: "FAIR" INDICATES FEW OR NO CLOUDS BELOW 12,000 FEET WITH NO
SIGNIFICANT WEATHER AND/OR OBSTRUCTIONS TO VISIBILITY.

NYZ071-072-176-178-NJZ106-104-222000-
NEW YORK CITY METRO AREA

CITY           SKY/WX    TMP DP  RH WIND       PRES   REMARKS
Central Park   SUNNY     75  41  29 S3        30.39F
Bronx Bot Gard   N/A     73  43  33 E8        30.36F
LaGuardia APRT PTSUNNY   74  39  28 S13       30.36F
Kennedy INTL   PTSUNNY   71  52  50 S9        30.39F
Breezy Point   NOT AVBL
Newark/Liberty PTSUNNY   74  46  36 SE9       30.36F
Teterboro      SUNNY     76  39  26 S12       30.34F
$$

NYZ177-179-078>081-222000-
LONG ISLAND NEW YORK

CITY           SKY/WX    TMP DP  RH WIND       PRES   REMARKS
Jones Beach      N/A     66 N/A N/A S6          N/A
Matinecock PT    N/A     68 N/A N/A N2          N/A
Farmingdale    MOSUNNY   71  47  42 S8        30.38F
MacArthur/ISP  PTSUNNY   71  48  43 S8        30.38F
Shirley        MOSUNNY   72  52  49 SW9       30.38F
Mt Sinai Harb    N/A     73 N/A N/A S7          N/A
Westhampton    SUNNY     72  49  44 VRB7      30.40F
East Hampton   FAIR      69  54  57 S7        30.38S
Montauk          N/A     68  59  73 S5        30.40S
$$

NYZ052-065-067-222000-
HUDSON VALLEY

CITY           SKY/WX    TMP DP  RH WIND       PRES   REMARKS
White Plains   SUNNY     74  42  31 S9        30.36F
Larchmont Harb   N/A     66 N/A N/A MISG        N/A
Croton On Huds   N/A     75 N/A N/A SE2G8       N/A
Newburgh       MOSUNNY   75  50  41 VRB6      30.36F
Montgomery     SUNNY     77  46  33 S12       30.33F
Poughkeepsie   SUNNY     77  40  26 SE9       30.33F
Albany         PTSUNNY   72  46  39 S7        30.33S
$$

NJZ001-105-106-008-010-013-015-019>022-104-222000-
NEW JERSEY

CITY           SKY/WX    TMP DP  RH WIND       PRES   REMARKS
Newark/Liberty PTSUNNY   74  46  36 SE9       30.36F
Teterboro      SUNNY     76  39  26 S12       30.34F
Caldwell       SUNNY     76  45  33 S8        30.35F
Somerville     SUNNY     77  45  32 S6        30.33F
Linden         FAIR      74  45  35 SE7       30.35F
Perth Amboy      N/A     72 N/A N/A E6          N/A
Sussex         SUNNY     75  44  33 S6        30.34F
Andover          N/A     76  43  30 S7        30.35F
Trenton        SUNNY     74  46  36 S10       30.35F
Millville      SUNNY     76  55  48 SW6       30.36F
Atlantic City  SUNNY     73  48  41 S9        30.37F
Wrightstown    NOT AVBL
Toms River       N/A     74  55  51 SE9       30.37F
Belmar         SUNNY     72  50  45 SE10        N/A
$$

PAZ047>061-062-071-222000-
EASTERN PENNSYLVANIA

CITY           SKY/WX    TMP DP  RH WIND       PRES   REMARKS
Philadelphia   PTSUNNY   75  47  36 SE5       30.35F
Allentown      SUNNY     76  42  29 S10       30.34F
Scranton       SUNNY     75  42  30 S9        30.32F
$$

CTZ002-004>006-009-010-012-RIZ004-006-007-MAZ004-011-015-222000-
SOUTHERN NEW ENGLAND
 IN CT

CITY           SKY/WX    TMP DP  RH WIND       PRES   REMARKS
Bradley INTL   PTSUNNY   75  46  35 SE7       30.36S
Hartford       PTSUNNY   78  49  35 S6        30.35F
Danbury        SUNNY     76  39  26 S10       30.37S
Wtrbury/Oxford SUNNY     75  43  31 S9        30.38F
Norwalk Harbor   N/A     68 N/A N/A E3          N/A
Bridgeport     SUNNY     74  45  35 SW5       30.37F
Meriden        MOSUNNY   75  37  25 S13       30.36S
New Haven      MOSUNNY   74  46  36 S5        30.37F
Chester        FAIR      75  37  25 S7        30.38S
Groton         SUNNY     69  55  60 S8        30.37F
Wilimantic     MOSUNNY   79  38  22 CALM      30.36S

 IN RI

CITY           SKY/WX    TMP DP  RH WIND       PRES   REMARKS
Providence     PTSUNNY   77  52  41 SE8       30.37F
Block Island   SUNNY     69  59  70 SW10      30.39S
Westerly       MOSUNNY   73  50  44 W6        30.39S
 IN MA

CITY           SKY/WX    TMP DP  RH WIND       PRES   REMARKS
Boston         MOSUNNY   64  56  75 E12       30.39S
Worcester      MOSUNNY   77  30  17 S5        30.38S
Westfield      MOSUNNY   73  48  41 S8        30.35F
Provincetown   SUNNY     64  55  72 NE7       30.39F
Nantucket      SUNNY     65  62  90 SW10      30.39F
$$

ANZ330-335-338-340-345-350-353-355-222000-
COASTAL MARINE OBSERVATIONS


STATION/POSITION TIME  SKY/WX   TEMP    WIND        PRES    VSBY  WAVE
                                AIR SEA DIR/SP/G                  HT/PER
                 (UTC)          (F)     (DEG/KT/KT) (MB)    (MI)  (FT/S)
NY HARB ENTRANCE 1750            65 66  180/  6/  8 1028.5          2/ 9
20 S FIRE ISLAND 1850            65 65  200/  6/  8 1029.0          2/ 9
GREAT SOUTH BAY  1815            65 63  220/  4/  6   N/A
15 E BARNEGAT LI NOT AVBL
HUDSON CANYON    1750            65 65  140/  4/  4 1028.9          2/10
KINGS POINT      1848            71 66  210/ 11/ 12 1029.0
EXECUTION ROCKS  1830            69      80/  2/  6   N/A
WESTERN LI SOUND 1800            67      60/  4/  4   N/A           1
CENTRAL LI SOUND 1830            67      40/  2/  2   N/A           0
EASTERN LI SOUND NOT AVBL
ROBBINS REEF     1848            67     180/ 10/ 11 1029.0
$$


>>>>>>>>>>>>>>>>>>>>>>>>>>>> KEY <<<<<<<<<<<<<<<<<<<<<<<<<<<
>                                                          <
>     SKY/WX - Sky Condition/Present Weather               <
>     TMP    - Temperature in Fahrenheit                   <
>     DP     - Dew Point in Fahrenheit                     <
>     RH     - Relative Humidity in Percent                <
>     WIND   - Direction (from) and Speed in MPH           <
>     PRES   - Mean Sea Level Pressure (inches of Hg)      <
>     WCI    - Wind Chill Index                            <
>     VSB    - VISIBILITY IN MILES                         <
>     HX     - HEAT INDEX                                  <
>     TC     - TEMPERATURE IN CELSIUS                      <
>     VRB    - VARIABLE WIND DIRECTION                     <
>                                                          <
>>>>>>>>>>>>>>>>>>>>>>>>>>>> KEY <<<<<<<<<<<<<<<<<<<<<<<<<<<




USA.gov is the U.S. government's official web portal to all federal, state and local government web resources and services.